Time,TemperatureF,DewpointF,PressureIn,WindDirection,WindDirectionDegrees,WindSpeedMPH,WindSpeedGustMPH,Humidity,HourlyPrecipIn,Conditions,Clouds,dailyrainin,SoftwareType,DateUTC
2013-02-04 00:03:00,17.0,12.0,30.17,West,278,0.0,0.0,80,0.00,,,0.00,,2013-02-04 05:03:00,
2013-02-04 00:11:00,17.0,12.0,30.17,West,278,0.0,0.0,80,0.00,,,0.00,,2013-02-04 05:11:00,
2013-02-04 00:22:00,17.0,12.0,30.17,West,278,0.0,0.0,80,0.00,,,0.00,,2013-02-04 05:22:00,
2013-02-04 00:33:00,18.0,13.0,30.17,West,278,0.0,0.0,81,0.00,,,0.00,,2013-02-04 05:33:00,
2013-02-04 00:42:00,18.0,13.0,30.17,West,278,0.0,0.0,81,0.00,,,0.00,,2013-02-04 05:42:00,
2013-02-04 00:52:00,18.0,13.0,30.16,West,278,0.0,0.0,81,0.00,,,0.00,,2013-02-04 05:52:00,
2013-02-04 01:02:00,17.0,12.0,30.17,West,278,0.0,0.0,82,0.00,,,0.00,,2013-02-04 06:02:00,
2013-02-04 01:11:00,17.0,12.0,30.17,West,278,0.0,0.0,82,0.00,,,0.00,,2013-02-04 06:11:00,
2013-02-04 01:21:00,17.0,12.0,30.17,West,278,0.0,0.0,81,0.00,,,0.00,,2013-02-04 06:21:00,
2013-02-04 01:32:00,18.0,13.0,30.17,West,278,0.0,0.0,82,0.00,,,0.00,,2013-02-04 06:32:00,
2013-02-04 01:42:00,18.0,13.0,30.17,West,278,0.0,0.0,82,0.00,,,0.00,,2013-02-04 06:42:00,
2013-02-04 01:51:00,18.0,13.0,30.17,West,278,0.0,0.0,82,0.00,,,0.00,,2013-02-04 06:51:00,
2013-02-04 02:02:00,17.0,12.0,30.16,West,278,0.0,0.0,82,0.00,,,0.00,,2013-02-04 07:02:00,
2013-02-04 02:11:00,17.0,12.0,30.16,West,278,0.0,0.0,82,0.00,,,0.00,,2013-02-04 07:11:00,
2013-02-04 02:21:00,17.0,12.0,30.16,West,278,0.0,0.0,82,0.00,,,0.00,,2013-02-04 07:21:00,
2013-02-04 02:32:00,17.0,12.0,30.15,West,278,0.0,0.0,82,0.00,,,0.00,,2013-02-04 07:32:00,
2013-02-04 02:42:00,17.0,12.0,30.15,West,278,0.0,0.0,82,0.00,,,0.00,,2013-02-04 07:42:00,
2013-02-04 02:52:00,17.0,13.0,30.16,West,278,0.0,0.0,83,0.00,,,0.00,,2013-02-04 07:52:00,
2013-02-04 03:01:00,18.0,14.0,30.16,West,278,1.0,2.0,83,0.00,,,0.00,,2013-02-04 08:01:00,
2013-02-04 03:11:00,18.0,14.0,30.16,West,278,1.0,2.0,83,0.00,,,0.00,,2013-02-04 08:11:00,
2013-02-04 03:21:00,18.0,14.0,30.15,West,278,0.0,3.0,83,0.00,,,0.00,,2013-02-04 08:21:00,
2013-02-04 03:32:00,18.0,14.0,30.15,West,278,0.0,0.0,83,0.00,,,0.00,,2013-02-04 08:32:00,
2013-02-04 03:42:00,18.0,14.0,30.15,West,278,0.0,0.0,83,0.00,,,0.00,,2013-02-04 08:42:00,
2013-02-04 03:52:00,18.0,14.0,30.15,West,278,1.0,4.0,83,0.00,,,0.00,,2013-02-04 08:52:00,
2013-02-04 04:02:00,19.0,15.0,30.14,West,278,0.0,2.0,84,0.00,,,0.00,,2013-02-04 09:02:00,
2013-02-04 04:11:00,18.0,14.0,30.14,West,278,0.0,0.0,83,0.00,,,0.00,,2013-02-04 09:11:00,
2013-02-04 04:21:00,18.0,14.0,30.14,West,278,0.0,0.0,83,0.00,,,0.00,,2013-02-04 09:21:00,
2013-02-04 04:32:00,18.0,14.0,30.14,West,278,0.0,3.0,83,0.00,,,0.00,,2013-02-04 09:32:00,
2013-02-04 04:42:00,18.0,14.0,30.14,West,278,0.0,3.0,83,0.00,,,0.00,,2013-02-04 09:42:00,
2013-02-04 04:51:00,18.0,14.0,30.13,West,278,0.0,0.0,83,0.00,,,0.00,,2013-02-04 09:51:00,
2013-02-04 05:01:00,19.0,15.0,30.12,West,278,0.0,0.0,83,0.00,,,0.00,,2013-02-04 10:01:00,
2013-02-04 05:11:00,19.0,15.0,30.12,West,278,0.0,0.0,83,0.00,,,0.00,,2013-02-04 10:11:00,
2013-02-04 05:21:00,19.0,15.0,30.13,West,278,0.0,0.0,83,0.00,,,0.00,,2013-02-04 10:21:00,
2013-02-04 05:32:00,19.0,15.0,30.14,West,278,0.0,0.0,83,0.00,,,0.00,,2013-02-04 10:32:00,
2013-02-04 05:42:00,19.0,15.0,30.14,West,278,0.0,0.0,83,0.00,,,0.00,,2013-02-04 10:42:00,
2013-02-04 05:51:00,19.0,15.0,30.14,West,278,0.0,0.0,83,0.00,,,0.00,,2013-02-04 10:51:00,
2013-02-04 06:02:00,19.0,14.0,30.14,West,278,0.0,3.0,82,0.00,,,0.00,,2013-02-04 11:02:00,
2013-02-04 06:11:00,19.0,14.0,30.14,West,278,0.0,3.0,82,0.00,,,0.00,,2013-02-04 11:11:00,
2013-02-04 06:22:00,19.0,14.0,30.14,West,278,2.0,4.0,82,0.00,,,0.00,,2013-02-04 11:22:00,
2013-02-04 06:33:00,20.0,15.0,30.13,West,274,2.0,5.0,82,0.00,,,0.00,,2013-02-04 11:33:00,
2013-02-04 06:42:00,20.0,15.0,30.13,West,274,2.0,5.0,82,0.00,,,0.00,,2013-02-04 11:42:00,
2013-02-04 06:52:00,20.0,15.0,30.11,West,264,2.0,6.0,81,0.00,,,0.00,,2013-02-04 11:52:00,
2013-02-04 07:02:00,20.0,15.0,30.11,SW,221,1.0,5.0,81,0.00,,,0.00,,2013-02-04 12:02:00,
2013-02-04 07:12:00,20.0,15.0,30.11,SW,221,1.0,5.0,81,0.00,,,0.00,,2013-02-04 12:12:00,
2013-02-04 07:22:00,20.0,15.0,30.10,SW,219,2.0,5.0,80,0.00,,,0.00,,2013-02-04 12:22:00,
2013-02-04 07:32:00,21.0,16.0,30.10,SW,218,2.0,5.0,81,0.00,,,0.00,,2013-02-04 12:32:00,
2013-02-04 07:42:00,21.0,16.0,30.10,SW,218,2.0,5.0,81,0.00,,,0.00,,2013-02-04 12:42:00,
2013-02-04 07:52:00,21.0,16.0,30.09,SW,217,2.0,6.0,80,0.00,,,0.00,,2013-02-04 12:52:00,
2013-02-04 08:03:00,21.0,16.0,30.07,SW,214,2.0,5.0,80,0.00,,,0.00,,2013-02-04 13:03:00,
2013-02-04 08:12:00,22.0,17.0,30.07,SSW,207,4.0,7.0,80,0.00,,,0.00,,2013-02-04 13:12:00,
2013-02-04 08:21:00,22.0,17.0,30.07,SSW,207,4.0,7.0,80,0.00,,,0.00,,2013-02-04 13:21:00,
2013-02-04 08:33:00,22.0,16.0,30.07,South,189,4.0,7.0,79,0.00,,,0.00,,2013-02-04 13:33:00,
2013-02-04 08:42:00,22.0,16.0,30.07,South,189,4.0,7.0,79,0.00,,,0.00,,2013-02-04 13:42:00,
2013-02-04 08:51:00,23.0,17.0,30.06,South,187,3.0,5.0,79,0.00,,,0.00,,2013-02-04 13:51:00,
2013-02-04 09:03:00,23.0,17.0,30.04,South,175,2.0,6.0,78,0.00,,,0.00,,2013-02-04 14:03:00,
2013-02-04 09:12:00,23.0,17.0,30.04,South,175,2.0,6.0,78,0.00,,,0.00,,2013-02-04 14:12:00,
2013-02-04 09:22:00,23.0,17.0,30.04,SSE,167,5.0,10.0,78,0.00,,,0.00,,2013-02-04 14:22:00,
2013-02-04 09:33:00,24.0,18.0,30.03,SSE,166,4.0,10.0,78,0.00,,,0.00,,2013-02-04 14:33:00,
2013-02-04 09:42:00,24.0,18.0,30.02,SSE,159,5.0,11.0,77,0.00,,,0.00,,2013-02-04 14:42:00,
2013-02-04 09:52:00,24.0,18.0,30.02,SSE,159,5.0,11.0,77,0.00,,,0.00,,2013-02-04 14:52:00,
2013-02-04 10:03:00,26.0,19.0,30.01,SSE,159,7.0,16.0,76,0.00,,,0.00,,2013-02-04 15:03:00,
2013-02-04 10:12:00,26.0,19.0,30.01,SSE,159,7.0,16.0,76,0.00,,,0.00,,2013-02-04 15:12:00,
2013-02-04 10:23:00,26.0,19.0,30.01,SSE,157,7.0,14.0,76,0.00,,,0.00,,2013-02-04 15:23:00,
2013-02-04 10:33:00,27.0,20.0,30.01,South,173,6.0,17.0,76,0.00,,,0.00,,2013-02-04 15:33:00,
2013-02-04 10:43:00,27.0,20.0,30.01,South,173,6.0,17.0,76,0.00,,,0.00,,2013-02-04 15:43:00,
2013-02-04 10:52:00,27.0,20.0,30.00,South,180,8.0,13.0,76,0.00,,,0.00,,2013-02-04 15:52:00,
2013-02-04 11:03:00,28.0,21.0,29.99,SSE,165,5.0,18.0,75,0.00,,,0.00,,2013-02-04 16:03:00,
2013-02-04 11:11:00,28.0,21.0,29.99,SSE,165,5.0,18.0,75,0.00,,,0.00,,2013-02-04 16:11:00,
2013-02-04 11:22:00,28.0,21.0,29.98,South,177,7.0,14.0,75,0.00,,,0.00,,2013-02-04 16:22:00,
2013-02-04 11:33:00,28.0,21.0,29.98,South,186,6.0,14.0,75,0.00,,,0.00,,2013-02-04 16:33:00,
2013-02-04 11:42:00,28.0,21.0,29.98,South,186,6.0,14.0,75,0.00,,,0.00,,2013-02-04 16:42:00,
2013-02-04 11:51:00,28.0,21.0,29.98,South,175,7.0,13.0,74,0.00,,,0.00,,2013-02-04 16:51:00,
2013-02-04 12:02:00,29.0,22.0,29.97,South,173,5.0,9.0,74,0.00,,,0.00,,2013-02-04 17:02:00,
2013-02-04 12:11:00,29.0,22.0,29.97,South,176,4.0,12.0,74,0.00,,,0.00,,2013-02-04 17:11:00,
2013-02-04 12:21:00,29.0,22.0,29.97,South,176,4.0,12.0,74,0.00,,,0.00,,2013-02-04 17:21:00,
2013-02-04 12:32:00,30.0,23.0,29.96,South,178,4.0,9.0,74,0.00,,,0.00,,2013-02-04 17:32:00,
2013-02-04 12:42:00,31.0,23.0,29.95,South,179,3.0,7.0,73,0.00,,,0.00,,2013-02-04 17:42:00,
2013-02-04 12:51:00,31.0,23.0,29.95,South,179,3.0,7.0,73,0.00,,,0.00,,2013-02-04 17:51:00,
2013-02-04 13:03:00,32.0,24.0,29.94,SSE,168,4.0,7.0,71,0.00,,,0.00,,2013-02-04 18:03:00,
2013-02-04 13:11:00,32.0,24.0,29.94,SSE,168,4.0,7.0,71,0.00,,,0.00,,2013-02-04 18:11:00,
2013-02-04 13:22:00,32.0,24.0,29.93,SSE,168,3.0,6.0,71,0.00,,,0.00,,2013-02-04 18:22:00,
2013-02-04 13:32:00,33.0,24.0,29.93,SSE,168,1.0,6.0,70,0.00,,,0.00,,2013-02-04 18:32:00,
2013-02-04 13:42:00,33.0,24.0,29.93,SSE,168,1.0,6.0,70,0.00,,,0.00,,2013-02-04 18:42:00,
2013-02-04 13:52:00,33.0,24.0,29.92,SSE,168,1.0,5.0,70,0.00,,,0.00,,2013-02-04 18:52:00,
2013-02-04 14:02:00,34.0,25.0,29.91,SSE,168,1.0,5.0,69,0.00,,,0.00,,2013-02-04 19:02:00,
2013-02-04 14:11:00,34.0,25.0,29.91,SSE,168,1.0,5.0,69,0.00,,,0.00,,2013-02-04 19:11:00,
2013-02-04 14:22:00,34.0,25.0,29.91,SSE,168,2.0,3.0,69,0.00,,,0.00,,2013-02-04 19:22:00,
2013-02-04 14:32:00,35.0,26.0,29.91,South,169,2.0,4.0,69,0.00,,,0.00,,2013-02-04 19:32:00,
2013-02-04 14:42:00,35.0,26.0,29.91,South,169,2.0,4.0,69,0.00,,,0.00,,2013-02-04 19:42:00,
2013-02-04 14:52:00,35.0,26.0,29.92,South,175,1.0,5.0,69,0.00,,,0.00,,2013-02-04 19:52:00,
2013-02-04 15:02:00,34.0,27.0,29.91,South,176,1.0,5.0,74,0.00,,,0.00,,2013-02-04 20:02:00,
2013-02-04 15:12:00,34.0,27.0,29.91,South,176,1.0,5.0,74,0.00,,,0.00,,2013-02-04 20:12:00,
2013-02-04 15:22:00,34.0,27.0,29.91,South,176,1.0,3.0,76,0.01,,,0.01,,2013-02-04 20:22:00,
2013-02-04 15:32:00,34.0,28.0,29.91,South,176,2.0,4.0,78,0.02,,,0.02,,2013-02-04 20:32:00,
2013-02-04 15:42:00,34.0,28.0,29.91,South,176,2.0,4.0,78,0.02,,,0.02,,2013-02-04 20:42:00,
2013-02-04 15:52:00,34.0,28.0,29.91,South,176,1.0,3.0,78,0.02,,,0.02,,2013-02-04 20:52:00,
2013-02-04 16:03:00,34.0,29.0,29.92,South,183,1.0,7.0,81,0.03,,,0.03,,2013-02-04 21:03:00,
2013-02-04 16:11:00,34.0,29.0,29.92,South,183,1.0,7.0,81,0.03,,,0.03,,2013-02-04 21:11:00,
2013-02-04 16:22:00,34.0,29.0,29.91,South,183,1.0,5.0,82,0.02,,,0.03,,2013-02-04 21:22:00,
2013-02-04 16:32:00,34.0,30.0,29.91,South,185,2.0,4.0,84,0.01,,,0.03,,2013-02-04 21:32:00,
2013-02-04 16:42:00,34.0,30.0,29.91,South,185,2.0,4.0,84,0.01,,,0.03,,2013-02-04 21:42:00,
2013-02-04 16:52:00,34.0,30.0,29.91,South,188,1.0,4.0,85,0.02,,,0.04,,2013-02-04 21:52:00,
2013-02-04 17:03:00,33.0,29.0,29.89,South,180,2.0,6.0,86,0.05,,,0.08,,2013-02-04 22:03:00,
2013-02-04 17:12:00,33.0,29.0,29.89,South,180,2.0,6.0,86,0.05,,,0.08,,2013-02-04 22:12:00,
2013-02-04 17:21:00,33.0,30.0,29.89,South,180,2.0,4.0,87,0.06,,,0.09,,2013-02-04 22:21:00,
2013-02-04 17:32:00,33.0,30.0,29.88,South,171,4.0,7.0,88,0.08,,,0.11,,2013-02-04 22:32:00,
2013-02-04 17:42:00,33.0,30.0,29.88,South,171,4.0,7.0,88,0.08,,,0.11,,2013-02-04 22:42:00,
2013-02-04 17:51:00,33.0,30.0,29.87,SSE,163,4.0,10.0,88,0.08,,,0.12,,2013-02-04 22:51:00,
2013-02-04 18:02:00,33.0,30.0,29.88,South,171,2.0,6.0,89,0.04,,,0.12,,2013-02-04 23:02:00,
2013-02-04 18:11:00,33.0,30.0,29.88,South,171,2.0,6.0,89,0.04,,,0.12,,2013-02-04 23:11:00,
2013-02-04 18:21:00,33.0,30.0,29.88,South,180,1.0,6.0,89,0.03,,,0.12,,2013-02-04 23:21:00,
2013-02-04 18:32:00,33.0,30.0,29.89,South,179,1.0,3.0,89,0.01,,,0.12,,2013-02-04 23:32:00,
2013-02-04 18:42:00,33.0,30.0,29.89,South,179,1.0,3.0,89,0.01,,,0.12,,2013-02-04 23:42:00,
2013-02-04 18:52:00,33.0,30.0,29.89,South,180,1.0,3.0,89,0.00,,,0.12,,2013-02-04 23:52:00,
2013-02-04 19:02:00,33.0,30.0,29.90,South,180,0.0,3.0,90,0.00,,,0.12,,2013-02-05 00:02:00,
2013-02-04 19:11:00,33.0,30.0,29.90,South,180,0.0,3.0,90,0.00,,,0.12,,2013-02-05 00:11:00,
2013-02-04 19:22:00,34.0,31.0,29.90,South,180,0.0,3.0,90,0.00,,,0.12,,2013-02-05 00:22:00,
2013-02-04 19:32:00,34.0,31.0,29.91,South,180,0.0,3.0,90,0.00,,,0.12,,2013-02-05 00:32:00,
2013-02-04 19:42:00,34.0,31.0,29.91,South,180,0.0,3.0,90,0.00,,,0.12,,2013-02-05 00:42:00,
2013-02-04 19:51:00,34.0,31.0,29.91,South,180,0.0,2.0,90,0.00,,,0.12,,2013-02-05 00:51:00,
2013-02-04 20:02:00,34.0,31.0,29.91,South,180,0.0,0.0,90,0.00,,,0.12,,2013-02-05 01:02:00,
2013-02-04 20:11:00,34.0,31.0,29.90,South,181,0.0,0.0,90,0.00,,,0.12,,2013-02-05 01:11:00,
2013-02-04 20:22:00,34.0,31.0,29.90,South,181,0.0,0.0,90,0.00,,,0.12,,2013-02-05 01:22:00,
2013-02-04 20:32:00,34.0,31.0,29.90,South,181,0.0,1.0,90,0.00,,,0.12,,2013-02-05 01:32:00,
2013-02-04 20:42:00,34.0,31.0,29.90,South,181,0.0,1.0,90,0.00,,,0.12,,2013-02-05 01:42:00,
2013-02-04 20:52:00,34.0,31.0,29.91,South,180,0.0,0.0,90,0.00,,,0.12,,2013-02-05 01:52:00,
2013-02-04 21:01:00,34.0,31.0,29.91,South,181,0.0,1.0,90,0.00,,,0.12,,2013-02-05 02:01:00,
2013-02-04 21:11:00,34.0,31.0,29.91,South,181,0.0,1.0,90,0.00,,,0.12,,2013-02-05 02:11:00,
2013-02-04 21:22:00,34.0,31.0,29.91,South,181,0.0,0.0,90,0.00,,,0.12,,2013-02-05 02:22:00,
2013-02-04 21:32:00,34.0,31.0,29.92,South,181,0.0,0.0,90,0.00,,,0.12,,2013-02-05 02:32:00,
2013-02-04 21:42:00,34.0,31.0,29.92,South,181,0.0,0.0,90,0.00,,,0.12,,2013-02-05 02:42:00,
2013-02-04 21:52:00,34.0,32.0,29.92,South,181,0.0,1.0,91,0.00,,,0.12,,2013-02-05 02:52:00,
2013-02-04 22:02:00,34.0,32.0,29.93,South,181,0.0,0.0,91,0.00,,,0.12,,2013-02-05 03:02:00,
2013-02-04 22:11:00,34.0,32.0,29.93,South,181,0.0,0.0,91,0.00,,,0.12,,2013-02-05 03:11:00,
2013-02-04 22:21:00,34.0,32.0,29.93,South,182,0.0,4.0,91,0.00,,,0.12,,2013-02-05 03:21:00,
2013-02-04 22:32:00,35.0,33.0,29.94,South,182,0.0,2.0,91,0.00,,,0.12,,2013-02-05 03:32:00,
2013-02-04 22:42:00,35.0,33.0,29.94,South,182,0.0,2.0,91,0.00,,,0.12,,2013-02-05 03:42:00,
2013-02-04 22:51:00,35.0,33.0,29.94,South,181,0.0,0.0,91,0.00,,,0.12,,2013-02-05 03:51:00,
2013-02-04 23:01:00,35.0,33.0,29.93,South,182,0.0,3.0,91,0.00,,,0.12,,2013-02-05 04:01:00,
2013-02-04 23:11:00,35.0,33.0,29.93,South,182,0.0,3.0,91,0.00,,,0.12,,2013-02-05 04:11:00,
2013-02-04 23:21:00,35.0,33.0,29.94,South,182,0.0,1.0,91,0.00,,,0.12,,2013-02-05 04:21:00,
2013-02-04 23:32:00,35.0,33.0,29.93,South,182,0.0,0.0,91,0.00,,,0.12,,2013-02-05 04:32:00,
2013-02-04 23:42:00,35.0,33.0,29.93,South,182,0.0,0.0,91,0.00,,,0.12,,2013-02-05 04:42:00,
2013-02-04 23:52:00,35.0,33.0,29.93,South,182,0.0,0.0,91,0.00,,,0.12,,2013-02-05 04:52:00,